Location: Eschertshofen
(49.3064°N, 11.5756°E)
Time: 12:51:13
(UTC+00:00)

ATLAS CENTAUR R/B - Visible Passes

Search period start: 16 January 2021 00:00
Search period end: 26 January 2021 00:00
Orbit: 477 x 668 km, 64.7° (Epoch: 12 January)

Date Brightness Start Highest point End Pass type
(mag) Time Alt. Az. Time Alt. Az. Time Alt. Az.
17 Jan 5.2 05:46:40 10° ESE 05:47:08 10° ESE 05:47:37 10° ESE visible
18 Jan 4.5 05:47:04 10° SSE 05:49:20 16° ESE 05:51:35 10° ENE visible
19 Jan 3.8 05:48:36 10° S 05:51:34 23° ESE 05:54:32 10° ENE visible
20 Jan 2.9 05:50:28 10° S 05:53:50 34° ESE 05:57:12 10° NE visible
21 Jan 1.9 05:52:33 10° SSW 05:56:09 53° SE 05:59:44 10° NE visible
22 Jan 1.1 05:54:49 10° SW 05:58:30 82° SE 06:02:11 10° NE visible
23 Jan 4.2 04:20:32 10° SE 04:22:30 14° ESE 04:24:29 10° E visible
23 Jan 1.0 05:57:14 10° SW 06:00:53 67° NW 06:04:34 10° NE visible
24 Jan 3.6 04:21:54 10° SSE 04:24:43 21° ESE 04:27:32 10° ENE visible
24 Jan 1.4 05:59:47 10° WSW 06:03:20 45° NW 06:06:53 10° NNE visible
25 Jan 2.8 04:25:10 20° SSE 04:26:59 31° ESE 04:30:15 10° ENE visible
25 Jan 1.8 06:02:28 10° WSW 06:05:48 32° NW 06:09:10 10° NNE visible
